This demonstration page uses our WeatherBlox Daily Observations layout. Learn more.

Left ArrowRight Arrow

38.83388, -104.82136

Hourly Observations for January 27, 2021

Temp ( °F °C ) Dew Point ( °F °C ) Humidity (%) Winds ( mph kmh ) Pressure ( in mb ) Visibility ( mi km ) Precip ( " mm )
12:56 am 00:56 Mostly Cloudy 16 -9.1 14 -9.9 94 94 S 8 13 29.80 1009 10 16 0.00 0.00
1:56 am 01:56 Clear 15 -9.2 14 -10.2 93 93 S 5 7 29.83 1010 10 16 0.00 0.00
2:56 am 02:56 Clear 17 -8.2 10 -12.4 72 72 SW 5 7 29.85 1011 10 16 0.00 0.00
3:56 am 03:56 Clear 21 -6.1 7 -13.8 55 55 S 5 7 29.87 1011 10 16 0.00 0.00
4:56 am 04:56 Clear 18 -7.8 8 -13.1 66 66 W 6 9 29.89 1012 10 16 0.00 0.00
5:56 am 05:56 Clear 19 -7 7 -13.8 59 59 E 3 6 29.91 1013 10 16 0.00 0.00
6:56 am 06:56 Clear 19 -7.4 8 -13.3 63 63 Calm 29.95 1014 10 16 0.00 0.00
7:56 am 07:56 Sunny 23 -5 8 -13.4 52 52 N 5 7 29.94 1014 10 16 0.00 0.00
8:56 am 08:56 Sunny 25 -3.8 9 -12.6 51 51 Calm 29.94 1014 10 16 0.05 1.27
9:56 am 09:56 Sunny 24 -4.3 17 -8.4 73 73 SSE 3 6 29.95 1014 10 16 0.09 2.29
10:56 am 10:56 Sunny 26 -3.4 19 -7.3 75 75 Calm 29.95 1014 10 16 0.03 0.76
11:56 am 11:56 Sunny 25 -4.1 18 -7.7 76 76 Calm 29.93 1014 10 16 0.00 0.00
12:56 pm 12:56 Sunny 27 -3 18 -7.9 69 69 NE 3 6 29.90 1012 10 16 0.00 0.00
1:56 pm 13:56 Sunny 25 -4 16 -9 69 69 NNE 3 6 29.91 1013 10 16 0.00 0.00
2:56 pm 14:56 Sunny 24 -4.5 16 -9 71 71 Calm 29.91 1013 10 16 0.00 0.00
3:56 pm 15:56 Sunny 24 -4.7 16 -8.7 74 74 Calm 29.92 1013 10 16 0.00 0.00
4:56 pm 16:56 Sunny 24 -4.7 16 -8.9 73 73 NNW 6 9 29.94 1014 10 16 0.00 0.00
5:56 pm 17:56 Clear 22 -5.8 15 -9.6 75 75 NW 7 11 29.95 1014 10 16 0.00 0.00
6:56 pm 18:56 Clear 23 -4.8 12 -10.9 63 63 N 7 11 29.97 1015 10 16 0.00 0.00
7:56 pm 19:56 Clear 24 -4.2 13 -10.8 60 60 Calm 29.94 1014 10 16 0.00 0.00
8:56 pm 20:56 Clear 24 -4.5 15 -9.5 68 68 W 3 6 29.92 1013 10 16 0.00 0.00
9:56 pm 21:56 Clear 26 -3.6 15 -9.7 63 63 Calm 29.92 1013 10 16 0.00 0.00
10:56 pm 22:56 Clear 29 -1.6 21 -6.3 71 71 WNW 8 13 29.92 1013 10 16 0.00 0.00
11:56 pm 23:56 Clear 34 1 17 -8.6 49 49 WNW 6 9 29.88 1012 10 16 0.00 0.00

Powered by AerisWeather